軌道要素
Epoch 2022 Jan. 21.0 TT = JDT 2459600.5
T 2020 Dec. 12.68039 TT Rudenko
q 0.3970907 (2000.0) P Q
z +0.0055902 Peri. 349.97155 -0.83360106 +0.50148333
+/-0.0000033 Node 222.81619 -0.48025401 -0.86511639
e 0.9977802 Incl. 19.92058 -0.27288341 -0.00938650
From 859 observations 2020 Sept. 17-2021 Nov. 27, mean residual 0".8.
|